Location: Berg
(47.2344°N, 9.5296°E)
Time: 05:37:17
(UTC+00:00)

Envisat - Pass Details

Date: 22 September 2021
Orbit: 764 x 766 km, 98.2° (Epoch: 23 October)

Event Time Altitude Azimuth Distance (km) Brightness Sun altitude
Rises 04:07:48 0° 18° (NNE) 3,243 6.7 -11.1°
Reaches altitude 10° 04:10:13 10° 25° (NNE) 2,312 6.0 -10.7°
Maximum altitude 04:15:07 45° 98° (E) 1,031 4.2 -9.9°
Drops below altitude 10° 04:19:57 10° 171° (S) 2,295 5.5 -9.1°
Sets 04:22:20 0° 178° (S) 3,216 6.1 -8.7°
